STARLINK-36416, 67630

Orbit data source: Space-Track

STARLINK-36416, 67630 is a payload satellite owned by SpaceX/Seattle (US) in LEO that was launched on Fri, 30 Jan 2026 UTC via an FALCON 9 launch vehicle from the Air Force Eastern Test Range (AFETR). Payload-class satellites include a variety of spacecraft equipped with specific instruments for various scientific and technological missions. These include communications satellites like Starlink; space stations such as the ISS; scientific satellites like the Hubble; Earth observation satellites from companies like Planet Labs, Umbra, and HawkEye 360; GPS; miniature CubeSats for education and research; and military/defense satellites.

Loading next visibility...
Identifier
67630, 2026-020P
Orbit
LEO
Country
Flag of USUS
Related business
Manufacturer
SpaceX/Seattle
Mission
Operational spacecraft
Bus & Motor
STARLINK V2MO, Unknown motor
Mass
575 kg wet, ~530 kg dry
Launch date (UTC)
2026-01-30 (2 months ago)
Launch vehicle
FALCON 9
Launch site
Air Force Eastern Test Range (AFETR)
Object type
Payload
Rocket body
Debris
Shape & HBR
Unknown shape, 17.7 m
Radar Cross Section
RCS unknown

Expand to show TLE details & history
Last TLE update: 20 hours ago

TLE from 20 hours ago
0 STARLINK-36416
1 67630U 26020P   26104.25982461  .00007883  00000-0  29566-3 0  9999
2 67630  43.0043 298.8942 0001627 266.3064  93.7601 15.27582439 11557
Epoch: 2026-04-14T06:14Z
TLE epoch observation values (Epoch: 2026-04-14T06:14:08.846Z)
Latitude
-0.00006°
Longitude
2.91865°
Altitude
482.891 km
Speed
7.626 km/s
True Right ascension
19h 55m 34s
True Declination
0° 00' 00"
Sunlit
Object was in daylight at epoch
Visualization orbit readout
Latitude
Unknown
Longitude
Unknown
Altitude
Unknown
Speed
Unknown
Apparent Right ascension
Unknown
Apparent Declination
Unknown
Sunlit
N/A
Visualization observer readout
Local Sidereal Time
08:45:03
Azimuth
Unknown
Elevation
Unknown
Doppler factor
Unknown
Orbital elements
Apogee altitude
486.103 km
Perigee altitude
483.87 km
Semi-major axis
6,863.123 km
Eccentricity
0.00016
Inclination
43.0043°
RAAN
298.8942°
Arg. of periapsis
266.3064°
True anomaly
93.7787°
Mean anomaly
93.7601°
Eccentric anomaly
93.7694°
Mean motion
3.81734 °/min
Orbital period
94.31 mins
BSTAR
0.00029566
Loading maneuver chart data...
Computing Atmospheric mass density...
Loading historical data...
Loading historical data...
Loading historical data...
Loading historical data...
Loading historical data...
Loading historical data...
Loading historical data...

Documentation

Showing up to 5 results
|